Weather History for Scottsbluff, NE

Change the Weather History Date:

Sunday, November 4, 2012

  Actual Average Record
Temperature  
Mean Temperature 47 °F 41 °F  
Max Temperature 66 °F 56 °F 79 °F (1924)
Min Temperature 28 °F 26 °F 4 °F (1897)
Degree Days  
Heating Degree Days 18 24  
Month to date heating degree days 71 92  
Since 1 July heating degree days 670 783  
Cooling Degree Days 0 0  
Month to date cooling degree days 0 0  
Year to date cooling degree days 1208 724  
Moisture  
Dew Point 30 °F    
Average Humidity 53    
Maximum Humidity 85    
Minimum Humidity 20    
Precipitation  
Precipitation T in 0.03 in 1.00 in (1922)
Month to date precipitation T 0.11  
Year to date precipitation 6.51 14.73  
Snow  
Snow 0.00 in 0.20 in 1.60 in (1973)
Month to date snowfall 0.0 0.7  
Since 1 July snowfall 6.5 3.9  
Snow Depth 0.00 in    
Sea Level Pressure  
Sea Level Pressure 30.16 in    
Wind  
Wind Speed 11 mph (NW)    
Max Wind Speed 29 mph    
Max Gust Speed 35 mph    
Visibility 10 miles    
Events      
T = Trace of Precipitation, MM = Missing Value Source: NWS Daily Summary

Daily Weather History Graph

Daily Weather History Graph

Search for Another Location

Airport:

Trip Planner

Search our weather history database for the weather conditions in past years. The results will help you decide how hot, cold, wet, or windy it might be!

Date:

Astronomy

Nov. 04, 2012 Rise Set
Actual Time 6:31 AM MST 4:44 PM MST
Civil Twilight 6:01 AM MST 5:13 PM MST
Nautical Twilight 5:28 AM MST 5:46 PM MST
Astronomical Twilight 4:56 AM MST 6:19 PM MST
Moon 9:23 PM MST (11/4) 11:17 AM MST (11/4)
Length of Visible Light 11h 11m
Length of Day
10h 13m
Waning Gibbous, 71% of the Moon is Illuminated
Nov 4
Waning Gibbous
Nov 6
Last Quarter
Nov 13
New
Nov 20
First Quarter
Nov 28
Full

Hourly Weather History & Observations

Time (MST) Temp. Windchill Dew Point Humidity Pressure Visibility Wind Dir Wind Speed Gust Speed Precip Events Conditions
12:53 AM 30.2 °F 26.7 °F 24.8 °F 80% 30.12 in 10.0 mi NW 3.5 mph - N/A   Clear
1:53 AM 30.0 °F 24.1 °F 25.0 °F 82% 30.12 in 10.0 mi NW 5.8 mph - N/A   Clear
1:53 AM 30.0 °F 24.1 °F 25.0 °F 82% 30.11 in 10.0 mi NNW 5.8 mph - N/A   Clear
2:53 AM 28.9 °F 25.2 °F 25.0 °F 85% 30.11 in 10.0 mi WNW 3.5 mph - N/A   Clear
3:53 AM 30.9 °F 25.2 °F 26.1 °F 82% 30.11 in 10.0 mi WNW 5.8 mph - N/A   Clear
4:53 AM 33.1 °F 27.7 °F 27.0 °F 78% 30.12 in 10.0 mi NW 5.8 mph - N/A   Clear
5:53 AM 33.1 °F 26.9 °F 27.0 °F 78% 30.12 in 10.0 mi WNW 6.9 mph - N/A   Clear
6:53 AM 34.0 °F 29.8 °F 27.0 °F 75% 30.15 in 10.0 mi NNW 4.6 mph - N/A   Clear
7:53 AM 37.9 °F 32.7 °F 28.9 °F 70% 30.17 in 10.0 mi NW 6.9 mph - N/A   Clear
8:53 AM 43.0 °F 37.7 °F 28.9 °F 58% 30.16 in 10.0 mi WNW 9.2 mph - N/A   Clear
9:53 AM 48.0 °F - 28.9 °F 48% 30.16 in 10.0 mi WNW 12.7 mph - N/A   Clear
10:53 AM 57.0 °F - 28.9 °F 34% 30.13 in 10.0 mi WNW 12.7 mph 19.6 mph N/A   Clear
11:53 AM 62.1 °F - 25.0 °F 24% 30.12 in 10.0 mi WNW 17.3 mph - N/A   Clear
12:53 PM 66.0 °F - 24.1 °F 20% 30.09 in 10.0 mi WNW 12.7 mph 21.9 mph N/A   Clear
1:15 PM 62.6 °F - 26.6 °F 26% 30.11 in 10.0 mi North 19.6 mph 25.3 mph N/A   Clear
1:53 PM 62.1 °F - 28.9 °F 29% 30.12 in 10.0 mi North 21.9 mph - N/A   Partly Cloudy
2:53 PM 60.1 °F - 34.0 °F 38% 30.16 in 10.0 mi North 21.9 mph 34.5 mph N/A   Mostly Cloudy
3:53 PM 55.9 °F - 34.0 °F 44% 30.19 in 10.0 mi NNW 21.9 mph 29.9 mph N/A   Mostly Cloudy
4:53 PM 54.0 °F - 35.1 °F 49% 30.19 in 10.0 mi NNW 21.9 mph 31.1 mph N/A   Mostly Cloudy
5:53 PM 52.0 °F - 37.0 °F 57% 30.23 in 10.0 mi NNW 15.0 mph 23.0 mph 0.00 in   Mostly Cloudy
6:53 PM 50.0 °F - 37.0 °F 61% 30.26 in 10.0 mi NNW 12.7 mph - N/A   Mostly Cloudy
7:53 PM 46.9 °F - 36.0 °F 66% 30.26 in 10.0 mi WNW 9.2 mph - N/A   Partly Cloudy
8:53 PM 44.1 °F 39.5 °F 36.0 °F 73% 30.27 in 10.0 mi NW 8.1 mph - N/A   Mostly Cloudy
9:53 PM 43.0 °F 39.5 °F 36.0 °F 76% 30.26 in 10.0 mi NNW 5.8 mph - N/A   Mostly Cloudy
10:53 PM 45.0 °F 40.6 °F 36.0 °F 71% 30.23 in 10.0 mi NW 8.1 mph - N/A   Overcast